Weather in Zemetchino

Russia / Tambov Oblast     52°54′16″N   41°50′50″E
temp.,
°C
wind,
m/s
gust,
m/s
humid.,
%
clouds,
%
prec.,
mm/h
press.,
hPa
HPBL,
m
9 may, sun
sun900:00+13s51195100 2.9 1006542
03:00+12s3797100 4.1 1006336
06:00+11s2799100 1.7 1004373
09:00+11wsw4796100 4.3 1005543
12:00+8nw3796100 2.6 1008435
15:00+9w2491100 5.4 1010614
18:00+5wnw5995100 0.3 1014535
21:00+4nw4896100 0.3 1016635
10 may, mon
mon1000:00+4nnw4897100 0.0 1017564
03:00+5nnw4998100 0.0 1018626
06:00+5nnw41096100 0.0 1019664
09:00+6n61295100 0.2 1019585
12:00+6n61596100 1.4 1019671
15:00+8nne71695100 2.3 1020648
18:00+9nne71994100 0.1 1019624
21:00+9nne7209198 0.1 1020657
11 may, tue
tue1100:00+9nne7199485 0.0 1019583
03:00+10ne61792100 0.0 1019536
06:00+11ne61590100 0.0 1020537
09:00+13ese4890100 0.4 1022699
12:00+13ese488090 0.4 1024859
15:00+17ese57480 0.4 10241406
18:00+15se3761100 0.0 1025608
21:00+11sse2279100 0.0 102622
12 may, wed
wed1200:00+10ne1191100 1.4 102629
03:00+8ene2395100 2.1 1025100
06:00+9ne2597100 0.1 1025189
09:00+10ne3696100 0.1 1024359
12:00+12e2898100 1.4 1023393
15:00+14e41094100 3.1 1022882
18:00+14ese41189100 0.1 1022826
21:00+14ese41191100 0.2 1022510
13 may, thu
thu1300:00+13ese31094100 0.0 1022388
03:00+12e2796100 0.0 1022187
06:00+12ese269318 0.0 1022190
09:00+18ese356624 0.0 1021572
12:00+21ese455784 0.0 10201166
15:00+21se4661100 0.0 10191489
18:00+18ese398061 0.1 1019339
21:00+15ese3109414 0.3 1019204